Wind_Speed
21 20 21 21 21 21 21 20 20 19 19 19 19 19 20 19 18 19 19 18 19 19 19 19 19 20 20 20 21 22 22 22 22 22 21 21 20 20 20 20 20 20 20
21 21 22 22 22 22 21 21 21 20 18 19 19 18 18 17 17 17 18 18 19 20 20 20 20 20 20 21 21 21 22 22 22 22 22 21 21 21 21 21 20 20 21
22 22 22 22 22 22 22 20 20 20 20 20 20 19 19 18 18 18 18 19 19 20 20 20 20 21 20 20 20 21 22 23 22 22 22 22 22 22 21 21 21 21 21
22 22 22 23 22 22 22 21 20 20 20 21 20 20 20 20 20 20 20 20 20 21 20 20 21 20 21 21 21 21 21 22 22 21 21 21 21 21 21 22 22 21 21
22 23 23 23 22 22 21 21 21 20 21 21 21 21 21 21 21 21 21 21 21 21 21 21 21 21 21 21 21 22 22 22 22 22 21 21 22 22 22 22 22 22 22
23 23 23 23 22 22 21 21 21 21 22 22 22 22 22 22 23 23 23 22 22 22 22 22 22 22 22 23 23 23 23 23 22 22 22 23 23 23 23 23 23 23 23
23 23 23 22 22 22 21 21 21 22 23 23 23 23 23 23 23 23 23 23 23 23 22 23 23 23 23 24 24 24 24 24 23 23 23 23 23 22 23 23 23 23 23
22 22 22 22 22 22 21 21 22 22 23 24 24 24 24 23 23 23 23 23 23 22 22 23 23 23 24 24 24 24 25 25 25 24 24 24 24 23 23 22 22 22 22
23 22 22 22 21 21 22 22 22 23 24 24 25 25 24 24 23 23 23 23 24 23 23 23 23 24 24 24 24 25 26 26 27 27 27 26 25 24 24 23 22 22 22
22 22 22 21 20 21 22 22 23 24 24 25 25 26 25 25 24 25 24 24 24 24 24 24 24 24 25 25 25 25 26 26 27 27 26 25 24 24 25 25 24 23 22
21 21 21 22 22 22 22 22 23 23 24 24 25 25 25 25 25 25 26 25 24 24 25 25 25 25 25 25 26 26 26 26 26 26 26 25 25 24 24 24 24 23 23
21 21 21 22 23 23 22 22 22 23 23 24 24 24 25 25 26 26 26 25 25 25 25 25 26 25 25 25 25 25 25 25 26 26 25 25 25 25 24 23 23 23 23
21 21 21 21 22 22 22 22 23 23 24 24 24 24 25 25 25 26 26 25 25 25 26 25 25 26 26 26 25 25 25 25 26 25 24 24 24 24 24 24 23 23 23
21 22 22 22 22 23 23 24 24 24 24 24 24 24 24 25 25 25 25 25 26 26 27 27 26 26 26 27 27 26 26 26 26 24 24 23 23 24 23 23 23 23 23
21 21 22 22 22 22 23 23 23 24 24 24 23 23 24 24 24 24 24 24 25 25 26 27 27 27 26 26 26 26 27 26 25 25 25 24 24 24 24 24 24 23 23
22 22 22 22 22 22 23 23 23 22 22 23 23 24 23 23 24 23 24 24 25 25 26 26 26 26 26 26 26 26 26 25 25 25 26 26 26 25 24 23 22 22 23
22 21 22 22 22 22 22 22 23 23 23 23 24 24 24 24 24 23 23 24 24 24 25 24 25 25 25 25 25 25 25 25 25 25 25 25 25 24 23 22 22 22 22
22 22 22 22 23 23 23 22 23 23 23 23 24 24 24 24 24 24 24 24 23 24 24 24 24 24 24 25 25 25 25 25 24 24 24 24 24 23 23 22 21 21 21
23 23 23 23 23 23 23 23 23 23 24 24 24 24 24 24 24 24 23 23 23 24 24 24 24 24 24 24 24 25 25 25 24 24 24 24 24 23 22 22 21 21 22
24 23 23 23 23 24 23 22 22 22 23 23 23 23 23 24 24 23 23 24 24 24 23 23 24 24 24 24 24 24 24 24 24 24 24 24 24 23 22 22 22 22 22
23 23 23 23 23 23 22 22 22 22 22 23 23 23 23 23 23 23 23 23 23 22 22 22 23 23 23 23 23 23 23 23 23 24 24 24 23 23 23 22 22 22 22
22 23 22 22 22 22 22 22 22 22 22 22 22 22 22 22 22 22 22 22 23 22 22 22 22 22 22 22 22 23 23 22 23 24 24 24 23 23 23 23 22 22 22
22 22 22 22 22 22 22 22 22 22 22 22 22 22 22 22 22 22 22 22 22 22 21 21 21 21 21 21 21 22 22 22 24 24 25 24 24 24 24 24 24 24 23
21 22 22 21 21 21 21 21 21 21 22 22 22 22 22 22 22 22 21 21 21 21 20 20 20 20 20 20 19 20 21 21 21 22 22 23 22 22 23 24 24 24 24
22 21 21 21 21 21 21 21 21 21 22 21 21 21 21 22 22 22 22 22 21 21 21 20 20 21 21 21 21 20 20 20 20 21 21 21 21 22 22 23 23 24 24
22 22 22 22 22 22 22 22 22 22 22 22 22 22 22 22 22 22 23 23 23 22 22 21 21 21 21 21 21 21 20 20 21 22 22 22 23 22 23 23 23 23 23
Wind_Direction
272 274 276 279 279 279 280 280 280 279 278 281 283 284 282 278 275 276 277 276 274 271 272 272 274 273 274 275 274 273 274 276 275 276 276 277 278 281 281 280 279 279 280
271 275 277 279 280 279 281 280 277 278 279 282 285 285 284 282 279 279 277 276 273 273 274 274 274 274 274 276 275 272 273 276 277 275 275 275 276 279 280 280 279 279 279
272 275 277 279 280 282 282 281 277 276 278 280 283 286 287 286 282 282 281 279 277 275 274 273 274 272 272 275 274 271 272 275 277 277 275 275 276 278 278 279 279 279 279
274 274 275 277 279 281 282 281 280 280 279 279 281 283 286 285 281 280 280 280 279 278 276 274 274 270 270 274 275 274 275 277 278 277 276 275 277 277 277 279 278 278 279
275 275 275 276 277 278 280 280 280 281 281 281 280 281 283 284 282 280 279 278 276 275 275 275 274 271 271 273 276 277 277 277 278 278 276 276 277 276 277 277 276 276 280
275 275 275 274 276 277 278 278 278 278 279 280 280 280 282 283 282 280 278 275 275 275 274 274 274 273 273 274 276 277 276 277 277 277 277 277 278 278 277 277 276 275 279
275 276 276 273 274 274 275 277 277 277 277 278 279 279 280 281 281 278 274 275 275 275 273 272 273 273 275 276 276 276 276 277 277 277 277 278 278 278 277 276 276 277 279
274 275 274 273 273 272 274 275 276 276 277 278 280 280 280 280 279 278 276 275 275 275 273 272 273 274 274 276 276 276 275 275 275 276 277 278 277 277 278 277 276 277 279
274 274 274 273 272 272 273 274 275 276 277 278 279 279 280 279 276 275 275 276 277 276 273 273 274 275 277 277 277 276 275 275 275 274 273 274 275 276 276 277 277 277 276
275 274 273 272 273 276 276 276 277 278 278 279 279 280 279 277 275 274 274 275 275 275 274 275 275 276 277 278 277 276 275 276 277 275 272 271 272 273 274 275 275 275 274
273 271 270 271 274 276 277 278 278 279 280 280 280 280 279 278 275 273 273 273 272 273 274 276 277 277 278 278 278 276 275 275 274 273 272 271 271 271 273 274 274 274 274
269 269 271 272 273 274 275 278 279 279 280 281 280 279 279 280 278 276 274 273 272 273 274 276 277 277 277 277 277 274 273 273 273 273 273 271 271 272 272 273 273 274 273
269 269 270 272 274 275 277 279 280 280 281 282 281 281 281 281 280 279 275 274 274 274 275 275 276 276 275 274 273 272 274 273 272 272 274 273 271 270 271 271 272 272 271
269 268 269 271 273 275 277 280 282 282 281 282 285 284 283 281 281 281 278 276 276 275 275 275 276 277 275 273 271 270 272 272 272 270 270 270 269 269 270 270 272 271 270
270 270 270 271 274 277 278 280 282 284 284 284 284 284 283 283 282 280 279 279 279 279 278 278 278 278 277 276 274 273 272 270 269 268 267 268 270 271 270 270 271 270 270
270 271 272 272 275 279 280 280 282 284 284 283 283 283 284 284 284 284 282 281 281 280 279 278 278 278 277 277 274 272 271 269 268 268 267 268 269 270 270 270 271 271 272
269 271 274 274 275 277 280 280 281 283 284 285 284 282 283 283 284 284 283 282 281 281 280 279 278 277 276 275 274 272 270 270 270 269 267 267 267 268 269 269 269 270 270
272 272 274 276 277 278 280 280 281 282 284 285 284 282 282 283 284 284 281 280 281 281 280 276 275 274 274 274 274 274 273 271 270 268 267 268 268 266 266 266 266 267 268
272 274 276 278 279 281 283 283 283 284 285 286 286 284 284 285 286 286 283 280 280 281 280 279 277 275 274 274 275 274 272 270 269 268 267 266 266 264 262 262 264 265 266
271 273 274 277 279 280 282 283 285 287 288 289 289 286 285 286 286 285 283 283 284 284 282 282 280 278 275 274 275 275 274 271 267 266 265 265 264 261 259 259 261 264 266
270 272 275 277 280 282 283 284 285 286 288 290 290 288 286 286 286 286 285 285 285 286 284 284 283 280 277 276 276 274 273 269 266 265 264 263 261 257 255 257 259 262 264
273 274 275 277 279 282 284 285 285 285 286 288 289 290 288 287 287 286 286 284 284 285 286 286 283 281 278 276 276 276 275 271 267 264 264 263 259 255 254 256 257 259 261
273 274 275 277 279 280 282 284 284 283 284 286 287 289 288 288 288 288 287 285 284 284 285 283 281 280 278 275 275 276 276 274 271 268 265 262 257 253 253 255 257 259 261
271 272 274 276 278 279 282 283 283 283 284 285 285 286 287 287 288 288 286 284 283 284 285 282 280 279 278 276 275 277 276 274 272 269 265 261 257 254 254 255 256 258 259
269 271 274 277 278 279 281 282 282 284 284 285 285 285 285 285 285 288 288 286 284 283 282 281 280 279 277 276 276 277 277 275 273 271 267 263 260 258 257 257 257 257 259
268 271 273 276 277 278 279 280 281 283 284 285 285 286 285 285 285 285 286 286 285 285 284 283 282 282 281 280 280 278 277 275 272 269 266 263 262 260 261 260 259 258 259
Height
5811 5811 5811 5811 5810 5809 5808 5808 5807 5806 5806 5805 5804 5803 5803 5802 5801 5801 5801 5800 5801 5801 5802 5802 5803 5803 5804 5804 5805 5805 5805 5806 5806 5806 5806 5807 5807 5807 5807 5807 5807 5807 5807
5806 5806 5806 5805 5805 5804 5803 5802 5802 5801 5801 5800 5799 5798 5798 5797 5797 5796 5796 5796 5796 5796 5796 5797 5797 5798 5799 5799 5799 5800 5800 5800 5800 5801 5801 5801 5801 5801 5801 5801 5801 5801 5801
5801 5801 5800 5800 5799 5798 5797 5797 5796 5796 5796 5795 5795 5794 5793 5792 5792 5792 5791 5791 5791 5791 5791 5791 5792 5792 5793 5793 5794 5794 5794 5794 5795 5795 5795 5795 5796 5795 5795 5795 5795 5795 5795
5795 5795 5794 5794 5793 5793 5792 5791 5791 5790 5790 5790 5790 5789 5789 5788 5787 5786 5786 5786 5785 5785 5785 5786 5786 5787 5787 5788 5788 5788 5788 5789 5789 5789 5789 5789 5790 5789 5789 5789 5789 5788 5788
5788 5788 5788 5788 5787 5787 5786 5786 5785 5785 5785 5785 5785 5784 5784 5783 5781 5781 5780 5780 5779 5780 5780 5780 5781 5781 5782 5782 5782 5783 5783 5783 5783 5783 5783 5783 5783 5783 5783 5783 5782 5782 5782
5782 5782 5781 5781 5781 5781 5781 5780 5780 5779 5779 5779 5778 5778 5778 5777 5776 5775 5774 5773 5773 5774 5774 5774 5775 5775 5776 5776 5776 5776 5776 5777 5777 5777 5777 5777 5777 5777 5776 5776 5776 5776 5775
5776 5776 5775 5775 5775 5775 5775 5774 5774 5774 5773 5772 5772 5772 5771 5770 5769 5768 5767 5767 5767 5767 5768 5768 5768 5768 5769 5769 5769 5770 5770 5770 5770 5770 5770 5771 5771 5770 5770 5769 5769 5769 5769
5770 5770 5769 5769 5769 5769 5769 5769 5768 5768 5767 5766 5766 5765 5764 5763 5763 5762 5761 5761 5761 5761 5761 5761 5762 5762 5762 5762 5763 5763 5763 5763 5763 5763 5764 5764 5764 5764 5764 5763 5763 5762 5762
5764 5763 5763 5763 5763 5763 5763 5763 5762 5761 5761 5760 5759 5759 5758 5757 5756 5756 5755 5755 5755 5755 5755 5755 5755 5755 5755 5755 5756 5756 5756 5756 5756 5756 5756 5756 5757 5757 5756 5756 5756 5756 5756
5757 5757 5757 5757 5757 5757 5757 5756 5756 5755 5754 5753 5753 5752 5751 5750 5750 5749 5749 5749 5749 5749 5749 5749 5749 5749 5748 5748 5748 5748 5748 5748 5748 5748 5749 5749 5749 5749 5749 5749 5749 5749 5749
5751 5751 5751 5751 5751 5751 5751 5750 5749 5749 5748 5747 5746 5745 5744 5743 5743 5742 5742 5742 5742 5742 5742 5742 5742 5741 5741 5741 5740 5740 5740 5740 5741 5741 5741 5741 5742 5742 5742 5742 5742 5742 5742
5745 5745 5746 5745 5745 5745 5745 5744 5743 5742 5742 5741 5739 5738 5737 5737 5736 5735 5735 5734 5735 5735 5735 5735 5734 5734 5733 5733 5733 5732 5732 5733 5733 5733 5733 5734 5734 5734 5734 5734 5734 5734 5734
5740 5740 5740 5740 5739 5739 5738 5738 5737 5736 5735 5734 5733 5732 5731 5730 5729 5728 5727 5727 5727 5727 5727 5727 5727 5726 5726 5725 5725 5724 5725 5725 5725 5726 5726 5726 5726 5726 5726 5727 5727 5727 5727
5734 5734 5734 5734 5733 5733 5733 5732 5731 5730 5729 5727 5726 5725 5724 5723 5722 5721 5720 5720 5720 5720 5720 5719 5719 5718 5718 5717 5717 5717 5717 5717 5717 5717 5718 5718 5718 5719 5719 5719 5719 5719 5720
5728 5728 5728 5728 5728 5727 5726 5725 5724 5723 5722 5721 5720 5719 5717 5716 5715 5714 5713 5713 5712 5712 5711 5711 5711 5710 5709 5709 5709 5709 5708 5708 5709 5710 5710 5710 5711 5711 5711 5711 5711 5712 5713
5722 5722 5722 5722 5722 5721 5720 5719 5717 5716 5715 5714 5713 5712 5710 5709 5708 5707 5706 5705 5705 5704 5703 5703 5702 5701 5701 5701 5700 5700 5700 5700 5701 5701 5702 5702 5703 5703 5703 5703 5704 5705 5705
5716 5716 5716 5716 5715 5714 5713 5712 5711 5710 5709 5707 5706 5705 5704 5702 5701 5700 5699 5698 5697 5696 5695 5695 5694 5693 5693 5692 5692 5692 5692 5692 5692 5692 5693 5694 5694 5695 5696 5696 5697 5698 5698
5710 5710 5709 5709 5708 5708 5707 5706 5705 5703 5702 5701 5699 5698 5696 5695 5694 5693 5692 5691 5690 5689 5688 5687 5686 5685 5684 5684 5684 5684 5683 5683 5684 5684 5685 5686 5686 5687 5688 5689 5690 5691 5691
5704 5704 5703 5702 5702 5701 5700 5699 5697 5696 5695 5694 5692 5691 5689 5688 5687 5685 5684 5683 5683 5681 5680 5679 5678 5677 5677 5676 5676 5675 5675 5675 5676 5676 5677 5678 5679 5680 5681 5682 5683 5684 5685
5697 5697 5696 5695 5695 5694 5693 5691 5690 5689 5688 5686 5685 5684 5682 5681 5680 5679 5677 5676 5675 5674 5673 5671 5671 5670 5669 5668 5668 5667 5667 5667 5667 5668 5669 5670 5671 5672 5674 5675 5676 5678 5678
5689 5689 5689 5688 5687 5687 5686 5684 5683 5682 5681 5680 5678 5677 5675 5674 5673 5672 5671 5669 5668 5667 5665 5664 5663 5662 5661 5660 5660 5659 5659 5659 5659 5660 5661 5662 5663 5664 5666 5668 5669 5670 5671
5682 5682 5681 5681 5680 5679 5678 5677 5676 5675 5674 5673 5672 5670 5669 5668 5666 5665 5664 5662 5661 5659 5658 5657 5656 5654 5654 5653 5652 5652 5652 5652 5652 5653 5653 5654 5656 5657 5659 5661 5662 5663 5664
5675 5675 5674 5673 5673 5672 5671 5670 5669 5669 5667 5666 5665 5664 5662 5661 5660 5658 5657 5655 5654 5653 5651 5650 5649 5648 5647 5646 5646 5645 5645 5645 5645 5645 5646 5647 5648 5650 5652 5653 5655 5656 5657
5668 5668 5667 5667 5666 5665 5664 5663 5663 5662 5661 5659 5658 5657 5656 5654 5653 5651 5650 5648 5647 5646 5644 5643 5642 5641 5640 5640 5639 5639 5639 5638 5638 5638 5639 5640 5641 5642 5644 5646 5647 5649 5650
5661 5661 5660 5660 5659 5659 5658 5657 5656 5655 5654 5653 5651 5650 5649 5647 5646 5645 5643 5642 5640 5639 5638 5637 5636 5635 5634 5633 5633 5633 5632 5632 5632 5632 5632 5633 5634 5636 5637 5638 5640 5641 5642
5654 5653 5653 5653 5652 5652 5651 5650 5649 5648 5646 5645 5644 5643 5642 5640 5639 5638 5636 5635 5634 5632 5631 5630 5629 5628 5627 5626 5626 5625 5626 5626 5625 5625 5626 5626 5627 5628 5630 5631 5632 5634 5635